Wetterdaten: Freitag, 09.10.2015
Datum Zeit Temp. A. Feuchte A. Luftdruck Regen Wind Richtung Richtung Sonnenschein ET UV Solar Taupunkt Windchill Windben Empfang
09.10.2015 00:01 10,5 C 94 % 1020,7 hPa 0,0 l/m 0,0 km/h (0 Bft) W-SW 251 0 min 0,000 mm 0,0 UV-I 0 W/m 9,6 C 10,5 C 0,0 km/h (0 Bft) 0,00 %
09.10.2015 00:06 10,5 C 94 % 1021,0 hPa 0,3 l/m 0,0 km/h (0 Bft) S 178 0 min 0,000 mm 0,0 UV-I 0 W/m 9,6 C 10,5 C 0,0 km/h (0 Bft) 0,00 %
09.10.2015 00:11 10,4 C 94 % 1020,8 hPa 0,0 l/m 0,0 km/h (0 Bft) S 179 0 min 0,000 mm 0,0 UV-I 0 W/m 9,5 C 10,4 C 0,0 km/h (0 Bft) 0,00 %
09.10.2015 00:16 10,4 C 94 % 1020,8 hPa 0,0 l/m 2,2 km/h (1 Bft) S 176 0 min 0,000 mm 0,0 UV-I 0 W/m 9,5 C 10,4 C 4,0 km/h (1 Bft) 0,00 %
09.10.2015 00:21 10,4 C 94 % 1020,9 hPa 0,0 l/m 1,4 km/h (1 Bft) S-SW 202 0 min 0,000 mm 0,0 UV-I 0 W/m 9,5 C 10,4 C 4,0 km/h (1 Bft) 0,00 %
09.10.2015 00:26 10,4 C 94 % 1020,9 hPa 0,0 l/m 0,0 km/h (0 Bft) O-SO 113 0 min 0,000 mm 0,0 UV-I 0 W/m 9,5 C 10,4 C 0,0 km/h (0 Bft) 0,00 %
09.10.2015 00:31 10,4 C 94 % 1020,9 hPa 0,0 l/m 0,0 km/h (0 Bft) NO 54 0 min 0,000 mm 0,0 UV-I 0 W/m 9,5 C 10,4 C 0,0 km/h (0 Bft) 0,00 %
09.10.2015 00:36 10,4 C 94 % 1020,9 hPa 0,0 l/m 0,0 km/h (0 Bft) NO 37 0 min 0,000 mm 0,0 UV-I 0 W/m 9,5 C 10,4 C 0,0 km/h (0 Bft) 0,00 %
09.10.2015 00:41 10,3 C 94 % 1020,9 hPa 0,0 l/m 0,0 km/h (0 Bft) S-SO 150 0 min 0,000 mm 0,0 UV-I 0 W/m 9,4 C 10,3 C 0,0 km/h (0 Bft) 0,00 %
09.10.2015 00:46 10,3 C 94 % 1020,9 hPa 0,3 l/m 0,0 km/h (0 Bft) S 177 0 min 0,000 mm 0,0 UV-I 0 W/m 9,4 C 10,3 C 0,0 km/h (0 Bft) 0,00 %
09.10.2015 00:51 10,3 C 94 % 1020,9 hPa 0,0 l/m 0,0 km/h (0 Bft) S 174 0 min 0,000 mm 0,0 UV-I 0 W/m 9,4 C 10,3 C 0,0 km/h (0 Bft) 0,00 %
09.10.2015 00:56 10,3 C 95 % 1020,9 hPa 0,0 l/m 0,0 km/h (0 Bft) O-NO 64 0 min 0,000 mm 0,0 UV-I 0 W/m 9,5 C 10,3 C 0,0 km/h (0 Bft) 0,00 %
09.10.2015 01:01 10,3 C 95 % 1020,8 hPa 0,0 l/m 0,0 km/h (0 Bft) O-SO 102 0 min 0,000 mm 0,0 UV-I 0 W/m 9,5 C 10,3 C 0,0 km/h (0 Bft) 0,00 %
09.10.2015 01:06 10,3 C 95 % 1020,8 hPa 0,0 l/m 0,0 km/h (0 Bft) SO 133 0 min 0,000 mm 0,0 UV-I 0 W/m 9,5 C 10,3 C 0,0 km/h (0 Bft) 0,00 %
09.10.2015 01:11 10,3 C 95 % 1020,6 hPa 0,0 l/m 0,0 km/h (0 Bft) O-NO 67 0 min 0,000 mm 0,0 UV-I 0 W/m 9,5 C 10,3 C 0,0 km/h (0 Bft) 0,00 %
09.10.2015 01:16 10,3 C 95 % 1020,7 hPa 0,0 l/m 0,0 km/h (0 Bft) S 178 0 min 0,000 mm 0,0 UV-I 0 W/m 9,5 C 10,3 C 0,0 km/h (0 Bft) 0,00 %
09.10.2015 01:21 10,4 C 95 % 1020,7 hPa 0,3 l/m 0,0 km/h (0 Bft) S 175 0 min 0,000 mm 0,0 UV-I 0 W/m 9,6 C 10,4 C 0,0 km/h (0 Bft) 0,00 %
09.10.2015 01:26 10,4 C 95 % 1020,8 hPa 0,0 l/m 0,0 km/h (0 Bft) N 355 0 min 0,000 mm 0,0 UV-I 0 W/m 9,6 C 10,4 C 0,0 km/h (0 Bft) 0,00 %
09.10.2015 01:31 10,4 C 95 % 1020,8 hPa 0,0 l/m 0,0 km/h (0 Bft) SO 134 0 min 0,000 mm 0,0 UV-I 0 W/m 9,6 C 10,4 C 0,0 km/h (0 Bft) 0,00 %
09.10.2015 01:36 10,4 C 95 % 1020,7 hPa 0,0 l/m 0,0 km/h (0 Bft) O-SO 117 0 min 0,000 mm 0,0 UV-I 0 W/m 9,6 C 10,4 C 0,0 km/h (0 Bft) 0,00 %
09.10.2015 01:41 10,4 C 95 % 1020,9 hPa 0,0 l/m 0,0 km/h (0 Bft) O-SO 111 0 min 0,000 mm 0,0 UV-I 0 W/m 9,6 C 10,4 C 0,0 km/h (0 Bft) 0,00 %
09.10.2015 01:46 10,4 C 95 % 1020,6 hPa 0,0 l/m 0,0 km/h (0 Bft) S 175 0 min 0,000 mm 0,0 UV-I 0 W/m 9,6 C 10,4 C 0,0 km/h (0 Bft) 0,00 %
09.10.2015 01:51 10,4 C 95 % 1020,8 hPa 0,0 l/m 0,0 km/h (0 Bft) S 179 0 min 0,000 mm 0,0 UV-I 0 W/m 9,6 C 10,4 C 0,0 km/h (0 Bft) 0,00 %
09.10.2015 01:56 10,4 C 95 % 1020,5 hPa 0,3 l/m 0,0 km/h (0 Bft) S-SO 152 0 min 0,000 mm 0,0 UV-I 0 W/m 9,6 C 10,4 C 0,0 km/h (0 Bft) 0,00 %
09.10.2015 02:01 10,4 C 95 % 1020,7 hPa 0,0 l/m 0,0 km/h (0 Bft) N-NO 32 0 min 0,000 mm 0,0 UV-I 0 W/m 9,6 C 10,4 C 0,0 km/h (0 Bft) 0,00 %
09.10.2015 02:06 10,5 C 95 % 1020,7 hPa 0,0 l/m 0,0 km/h (0 Bft) S 176 0 min 0,000 mm 0,0 UV-I 0 W/m 9,7 C 10,5 C 0,0 km/h (0 Bft) 0,00 %
09.10.2015 02:11 10,5 C 96 % 1020,7 hPa 0,0 l/m 0,0 km/h (0 Bft) O 90 0 min 0,000 mm 0,0 UV-I 0 W/m 9,9 C 10,5 C 0,0 km/h (0 Bft) 0,00 %
09.10.2015 02:16 10,5 C 96 % 1020,5 hPa 0,0 l/m 0,0 km/h (0 Bft) O-SO 105 0 min 0,000 mm 0,0 UV-I 0 W/m 9,9 C 10,5 C 0,0 km/h (0 Bft) 0,00 %
09.10.2015 02:21 10,4 C 96 % 1020,5 hPa 0,0 l/m 0,0 km/h (0 Bft) O-SO 110 0 min 0,000 mm 0,0 UV-I 0 W/m 9,8 C 10,4 C 0,0 km/h (0 Bft) 0,00 %
09.10.2015 02:26 10,4 C 96 % 1020,6 hPa 0,0 l/m 0,0 km/h (0 Bft) S-SW 200 0 min 0,000 mm 0,0 UV-I 0 W/m 9,8 C 10,4 C 0,0 km/h (0 Bft) 0,00 %
09.10.2015 02:31 10,4 C 96 % 1020,5 hPa 0,0 l/m 0,0 km/h (0 Bft) S-SW 192 0 min 0,000 mm 0,0 UV-I 0 W/m 9,8 C 10,4 C 0,0 km/h (0 Bft) 0,00 %
09.10.2015 02:36 10,4 C 96 % 1020,5 hPa 0,0 l/m 0,0 km/h (0 Bft) S 176 0 min 0,000 mm 0,0 UV-I 0 W/m 9,8 C 10,4 C 0,0 km/h (0 Bft) 0,00 %
09.10.2015 02:41 10,4 C 96 % 1020,5 hPa 0,0 l/m 0,0 km/h (0 Bft) O-NO 61 0 min 0,000 mm 0,0 UV-I 0 W/m 9,8 C 10,4 C 0,0 km/h (0 Bft) 0,00 %
09.10.2015 02:46 10,4 C 96 % 1020,4 hPa 0,3 l/m 0,0 km/h (0 Bft) S 180 0 min 0,000 mm 0,0 UV-I 0 W/m 9,8 C 10,4 C 0,0 km/h (0 Bft) 0,00 %
09.10.2015 02:51 10,4 C 96 % 1020,3 hPa 0,0 l/m 0,0 km/h (0 Bft) S 176 0 min 0,000 mm 0,0 UV-I 0 W/m 9,8 C 10,4 C 0,0 km/h (0 Bft) 0,00 %
09.10.2015 02:56 10,4 C 96 % 1020,4 hPa 0,0 l/m 0,0 km/h (0 Bft) O-NO 66 0 min 0,000 mm 0,0 UV-I 0 W/m 9,8 C 10,4 C 0,0 km/h (0 Bft) 0,00 %
09.10.2015 03:01 10,4 C 96 % 1020,3 hPa 0,0 l/m 0,0 km/h (0 Bft) O 95 0 min 0,000 mm 0,0 UV-I 0 W/m 9,8 C 10,4 C 0,0 km/h (0 Bft) 0,00 %
09.10.2015 03:06 10,4 C 96 % 1020,1 hPa 0,0 l/m 0,0 km/h (0 Bft) NO 56 0 min 0,000 mm 0,0 UV-I 0 W/m 9,8 C 10,4 C 0,0 km/h (0 Bft) 0,00 %
09.10.2015 03:11 10,4 C 96 % 1020,3 hPa 0,0 l/m 0,0 km/h (0 Bft) O-NO 72 0 min 0,000 mm 0,0 UV-I 0 W/m 9,8 C 10,4 C 0,0 km/h (0 Bft) 0,00 %
09.10.2015 03:16 10,4 C 96 % 1020,3 hPa 0,0 l/m 0,0 km/h (0 Bft) O-NO 63 0 min 0,000 mm 0,0 UV-I 0 W/m 9,8 C 10,4 C 0,0 km/h (0 Bft) 0,00 %
09.10.2015 03:21 10,4 C 96 % 1020,3 hPa 0,0 l/m 0,0 km/h (0 Bft) O-NO 60 0 min 0,000 mm 0,0 UV-I 0 W/m 9,8 C 10,4 C 0,0 km/h (0 Bft) 0,00 %
09.10.2015 03:26 10,4 C 96 % 1020,2 hPa 0,0 l/m 0,0 km/h (0 Bft) O-NO 70 0 min 0,000 mm 0,0 UV-I 0 W/m 9,8 C 10,4 C 0,0 km/h (0 Bft) 0,00 %
09.10.2015 03:31 10,4 C 96 % 1020,0 hPa 0,0 l/m 0,0 km/h (0 Bft) O-NO 64 0 min 0,000 mm 0,0 UV-I 0 W/m 9,8 C 10,4 C 0,0 km/h (0 Bft) 0,00 %
09.10.2015 03:36 10,4 C 96 % 1020,2 hPa 0,0 l/m 0,0 km/h (0 Bft) O-SO 123 0 min 0,000 mm 0,0 UV-I 0 W/m 9,8 C 10,4 C 0,0 km/h (0 Bft) 0,00 %
09.10.2015 03:42 10,4 C 96 % 1020,2 hPa 0,0 l/m 0,0 km/h (0 Bft) O-NO 76 0 min 0,000 mm 0,0 UV-I 0 W/m 9,8 C 10,4 C 0,0 km/h (0 Bft) 0,00 %
09.10.2015 03:47 10,4 C 96 % 1020,2 hPa 0,0 l/m 0,0 km/h (0 Bft) SO 125 0 min 0,000 mm 0,0 UV-I 0 W/m 9,8 C 10,4 C 0,0 km/h (0 Bft) 0,00 %
09.10.2015 03:52 10,4 C 96 % 1020,1 hPa 0,0 l/m 0,0 km/h (0 Bft) S-SW 195 0 min 0,000 mm 0,0 UV-I 0 W/m 9,8 C 10,4 C 0,0 km/h (0 Bft) 0,00 %
09.10.2015 03:57 10,4 C 96 % 1020,1 hPa 0,0 l/m 0,0 km/h (0 Bft) O-SO 111 0 min 0,000 mm 0,0 UV-I 0 W/m 9,8 C 10,4 C 0,0 km/h (0 Bft) 0,00 %
09.10.2015 04:02 10,4 C 96 % 1020,0 hPa 0,0 l/m 0,0 km/h (0 Bft) NO 55 0 min 0,000 mm 0,0 UV-I 0 W/m 9,8 C 10,4 C 0,0 km/h (0 Bft) 0,00 %
09.10.2015 04:07 10,4 C 96 % 1020,1 hPa 0,0 l/m 0,0 km/h (0 Bft) SO 136 0 min 0,000 mm 0,0 UV-I 0 W/m 9,8 C 10,4 C 0,0 km/h (0 Bft) 0,00 %
09.10.2015 04:12 10,4 C 96 % 1020,1 hPa 0,0 l/m 0,0 km/h (0 Bft) NO 56 0 min 0,000 mm 0,0 UV-I 0 W/m 9,8 C 10,4 C 0,0 km/h (0 Bft) 0,00 %
09.10.2015 04:17 10,4 C 96 % 1020,0 hPa 0,0 l/m 0,0 km/h (0 Bft) O-NO 71 0 min 0,000 mm 0,0 UV-I 0 W/m 9,8 C 10,4 C 0,0 km/h (0 Bft) 0,00 %
09.10.2015 04:22 10,4 C 96 % 1020,1 hPa 0,0 l/m 0,0 km/h (0 Bft) O 95 0 min 0,000 mm 0,0 UV-I 0 W/m 9,8 C 10,4 C 0,0 km/h (0 Bft) 0,00 %
09.10.2015 04:27 10,4 C 96 % 1020,2 hPa 0,0 l/m 0,0 km/h (0 Bft) O-NO 75 0 min 0,000 mm 0,0 UV-I 0 W/m 9,8 C 10,4 C 0,0 km/h (0 Bft) 0,00 %
09.10.2015 04:32 10,4 C 96 % 1020,0 hPa 0,3 l/m 0,0 km/h (0 Bft) S 177 0 min 0,000 mm 0,0 UV-I 0 W/m 9,8 C 10,4 C 0,0 km/h (0 Bft) 0,00 %
09.10.2015 04:37 10,4 C 96 % 1020,0 hPa 0,0 l/m 0,0 km/h (0 Bft) N 357 0 min 0,000 mm 0,0 UV-I 0 W/m 9,8 C 10,4 C 0,0 km/h (0 Bft) 0,00 %
09.10.2015 04:42 10,4 C 96 % 1020,0 hPa 0,0 l/m 0,0 km/h (0 Bft) O 94 0 min 0,000 mm 0,0 UV-I 0 W/m 9,8 C 10,4 C 0,0 km/h (0 Bft) 0,00 %
09.10.2015 04:47 10,4 C 96 % 1020,0 hPa 0,0 l/m 0,0 km/h (0 Bft) S-SW 211 0 min 0,000 mm 0,0 UV-I 0 W/m 9,8 C 10,4 C 0,0 km/h (0 Bft) 0,00 %
09.10.2015 04:52 10,4 C 96 % 1020,1 hPa 0,0 l/m 0,0 km/h (0 Bft) S-SW 197 0 min 0,000 mm 0,0 UV-I 0 W/m 9,8 C 10,4 C 0,0 km/h (0 Bft) 0,00 %
09.10.2015 04:57 10,4 C 96 % 1020,1 hPa 0,0 l/m 0,0 km/h (0 Bft) S-SW 197 0 min 0,000 mm 0,0 UV-I 0 W/m 9,8 C 10,4 C 0,0 km/h (0 Bft) 0,00 %
09.10.2015 05:02 10,4 C 96 % 1020,0 hPa 0,0 l/m 0,0 km/h (0 Bft) S-SW 197 0 min 0,000 mm 0,0 UV-I 0 W/m 9,8 C 10,4 C 0,0 km/h (0 Bft) 0,00 %
09.10.2015 05:07 10,5 C 96 % 1019,8 hPa 0,0 l/m 0,0 km/h (0 Bft) O-NO 74 0 min 0,000 mm 0,0 UV-I 0 W/m 9,9 C 10,5 C 0,0 km/h (0 Bft) 0,00 %
09.10.2015 05:12 10,5 C 96 % 1019,9 hPa 0,0 l/m 0,0 km/h (0 Bft) O-NO 61 0 min 0,000 mm 0,0 UV-I 0 W/m 9,9 C 10,5 C 0,0 km/h (0 Bft) 0,00 %
09.10.2015 05:17 10,5 C 96 % 1019,9 hPa 0,0 l/m 0,0 km/h (0 Bft) O 94 0 min 0,000 mm 0,0 UV-I 0 W/m 9,9 C 10,5 C 0,0 km/h (0 Bft) 0,00 %
09.10.2015 05:22 10,5 C 96 % 1019,9 hPa 0,0 l/m 0,0 km/h (0 Bft) O-NO 69 0 min 0,000 mm 0,0 UV-I 0 W/m 9,9 C 10,5 C 0,0 km/h (0 Bft) 0,00 %
09.10.2015 05:27 10,4 C 96 % 1019,9 hPa 0,0 l/m 0,0 km/h (0 Bft) O 95 0 min 0,000 mm 0,0 UV-I 0 W/m 9,8 C 10,4 C 0,0 km/h (0 Bft) 0,00 %
09.10.2015 05:32 10,4 C 96 % 1019,7 hPa 0,0 l/m 0,0 km/h (0 Bft) W-NW 293 0 min 0,000 mm 0,0 UV-I 0 W/m 9,8 C 10,4 C 0,0 km/h (0 Bft) 0,00 %
09.10.2015 05:37 10,4 C 96 % 1019,6 hPa 0,0 l/m 0,0 km/h (0 Bft) SO 124 0 min 0,000 mm 0,0 UV-I 0 W/m 9,8 C 10,4 C 0,0 km/h (0 Bft) 0,00 %
09.10.2015 05:42 10,5 C 96 % 1019,7 hPa 0,0 l/m 0,0 km/h (0 Bft) O-SO 104 0 min 0,000 mm 0,0 UV-I 0 W/m 9,9 C 10,5 C 0,0 km/h (0 Bft) 0,00 %
09.10.2015 05:47 10,5 C 97 % 1019,7 hPa 0,0 l/m 0,0 km/h (0 Bft) S-SW 195 0 min 0,000 mm 0,0 UV-I 0 W/m 10,0 C 10,5 C 0,0 km/h (0 Bft) 0,00 %
09.10.2015 05:52 10,5 C 97 % 1019,6 hPa 0,0 l/m 0,0 km/h (0 Bft) S-SW 211 0 min 0,000 mm 0,0 UV-I 0 W/m 10,0 C 10,5 C 0,0 km/h (0 Bft) 0,00 %
09.10.2015 05:57 10,5 C 97 % 1019,7 hPa 0,0 l/m 0,0 km/h (0 Bft) S 172 0 min 0,000 mm 0,0 UV-I 0 W/m 10,0 C 10,5 C 0,0 km/h (0 Bft) 0,00 %
09.10.2015 06:02 10,5 C 96 % 1019,8 hPa 0,0 l/m 0,0 km/h (0 Bft) O-NO 65 0 min 0,000 mm 0,0 UV-I 0 W/m 9,9 C 10,5 C 0,0 km/h (0 Bft) 0,00 %
09.10.2015 06:07 10,5 C 96 % 1019,6 hPa 0,0 l/m 0,0 km/h (0 Bft) O 89 0 min 0,000 mm 0,0 UV-I 0 W/m 9,9 C 10,5 C 0,0 km/h (0 Bft) 0,00 %
09.10.2015 06:12 10,4 C 96 % 1019,6 hPa 0,0 l/m 0,0 km/h (0 Bft) O-NO 64 0 min 0,000 mm 0,0 UV-I 0 W/m 9,8 C 10,4 C 0,0 km/h (0 Bft) 0,00 %
09.10.2015 06:17 10,4 C 96 % 1019,7 hPa 0,0 l/m 0,0 km/h (0 Bft) S-SW 203 0 min 0,000 mm 0,0 UV-I 0 W/m 9,8 C 10,4 C 0,0 km/h (0 Bft) 0,00 %
09.10.2015 06:22 10,4 C 96 % 1019,7 hPa 0,0 l/m 0,4 km/h (0 Bft) O 91 0 min 0,000 mm 0,0 UV-I 0 W/m 9,8 C 10,4 C 4,0 km/h (1 Bft) 0,00 %
09.10.2015 06:27 10,4 C 96 % 1019,6 hPa 0,0 l/m 0,4 km/h (0 Bft) S 180 0 min 0,000 mm 0,0 UV-I 0 W/m 9,8 C 10,4 C 4,0 km/h (1 Bft) 0,00 %
09.10.2015 06:32 10,4 C 96 % 1019,6 hPa 0,0 l/m 0,0 km/h (0 Bft) O-NO 58 0 min 0,000 mm 0,0 UV-I 0 W/m 9,8 C 10,4 C 0,0 km/h (0 Bft) 0,00 %
09.10.2015 06:37 10,4 C 96 % 1019,6 hPa 0,0 l/m 0,0 km/h (0 Bft) O 95 0 min 0,000 mm 0,0 UV-I 0 W/m 9,8 C 10,4 C 0,0 km/h (0 Bft) 0,00 %
09.10.2015 06:42 10,4 C 96 % 1019,5 hPa 0,0 l/m 0,0 km/h (0 Bft) O 79 0 min 0,000 mm 0,0 UV-I 0 W/m 9,8 C 10,4 C 0,0 km/h (0 Bft) 0,00 %
09.10.2015 06:47 10,4 C 96 % 1019,4 hPa 0,0 l/m 0,0 km/h (0 Bft) O-NO 74 0 min 0,000 mm 0,0 UV-I 0 W/m 9,8 C 10,4 C 0,0 km/h (0 Bft) 0,00 %
09.10.2015 06:52 10,4 C 96 % 1019,5 hPa 0,0 l/m 0,0 km/h (0 Bft) O 83 0 min 0,000 mm 0,0 UV-I 0 W/m 9,8 C 10,4 C 0,0 km/h (0 Bft) 0,00 %
09.10.2015 06:57 10,4 C 96 % 1019,4 hPa 0,0 l/m 0,0 km/h (0 Bft) O-NO 61 0 min 0,000 mm 0,0 UV-I 0 W/m 9,8 C 10,4 C 0,0 km/h (0 Bft) 0,00 %
09.10.2015 07:02 10,4 C 96 % 1019,6 hPa 0,0 l/m 0,0 km/h (0 Bft) O-SO 114 0 min 0,000 mm 0,0 UV-I 0 W/m 9,8 C 10,4 C 0,0 km/h (0 Bft) 0,00 %
09.10.2015 07:07 10,4 C 96 % 1019,6 hPa 0,0 l/m 0,0 km/h (0 Bft) O-SO 107 0 min 0,000 mm 0,0 UV-I 0 W/m 9,8 C 10,4 C 0,0 km/h (0 Bft) 0,00 %
09.10.2015 07:12 10,4 C 96 % 1019,6 hPa 0,0 l/m 0,0 km/h (0 Bft) O-SO 108 0 min 0,000 mm 0,0 UV-I 0 W/m 9,8 C 10,4 C 0,0 km/h (0 Bft) 0,00 %
09.10.2015 07:17 10,4 C 96 % 1019,6 hPa 0,0 l/m 0,0 km/h (0 Bft) O-SO 108 0 min 0,000 mm 0,0 UV-I 0 W/m 9,8 C 10,4 C 0,0 km/h (0 Bft) 0,00 %
09.10.2015 07:22 10,3 C 96 % 1019,7 hPa 0,0 l/m 0,0 km/h (0 Bft) O-SO 104 0 min 0,000 mm 0,0 UV-I 0 W/m 9,7 C 10,3 C 0,0 km/h (0 Bft) 0,00 %
09.10.2015 07:27 10,3 C 96 % 1019,7 hPa 0,0 l/m 0,0 km/h (0 Bft) O-SO 104 0 min 0,000 mm 0,0 UV-I 2 W/m 9,7 C 10,3 C 0,0 km/h (0 Bft) 0,00 %
09.10.2015 07:32 10,3 C 96 % 1019,8 hPa 0,0 l/m 0,0 km/h (0 Bft) O-SO 115 0 min 0,000 mm 0,0 UV-I 6 W/m 9,7 C 10,3 C 0,0 km/h (0 Bft) 0,00 %
09.10.2015 07:37 10,3 C 96 % 1019,7 hPa 0,0 l/m 0,0 km/h (0 Bft) O-SO 108 0 min 0,000 mm 0,0 UV-I 10 W/m 9,7 C 10,3 C 0,0 km/h (0 Bft) 0,00 %
09.10.2015 07:42 10,4 C 96 % 1019,8 hPa 0,0 l/m 0,0 km/h (0 Bft) O-SO 108 0 min 0,000 mm 0,0 UV-I 18 W/m 9,8 C 10,4 C 0,0 km/h (0 Bft) 0,00 %
09.10.2015 07:47 10,4 C 96 % 1019,9 hPa 0,0 l/m 0,0 km/h (0 Bft) O-SO 107 0 min 0,000 mm 0,0 UV-I 23 W/m 9,8 C 10,4 C 0,0 km/h (0 Bft) 0,00 %
09.10.2015 07:52 10,4 C 96 % 1019,6 hPa 0,0 l/m 0,0 km/h (0 Bft) O-SO 107 0 min 0,000 mm 0,0 UV-I 29 W/m 9,8 C 10,4 C 0,0 km/h (0 Bft) 0,00 %
09.10.2015 07:57 10,4 C 96 % 1020,0 hPa 0,0 l/m 0,0 km/h (0 Bft) O-SO 107 0 min 0,000 mm 0,0 UV-I 36 W/m 9,8 C 10,4 C 0,0 km/h (0 Bft) 0,00 %
09.10.2015 08:02 10,5 C 96 % 1020,0 hPa 0,0 l/m 0,0 km/h (0 Bft) O-SO 104 0 min 0,000 mm 0,0 UV-I 45 W/m 9,9 C 10,5 C 0,0 km/h (0 Bft) 0,00 %
09.10.2015 08:07 10,6 C 96 % 1019,9 hPa 0,0 l/m 0,0 km/h (0 Bft) O 97 0 min 0,000 mm 0,0 UV-I 50 W/m 10,0 C 10,6 C 0,0 km/h (0 Bft) 0,00 %
09.10.2015 08:12 10,7 C 97 % 1020,1 hPa 0,0 l/m 0,0 km/h (0 Bft) O 97 0 min 0,000 mm 0,0 UV-I 52 W/m 10,2 C 10,7 C 0,0 km/h (0 Bft) 0,00 %
09.10.2015 08:17 10,7 C 97 % 1020,1 hPa 0,0 l/m 0,0 km/h (0 Bft) O 97 0 min 0,000 mm 0,0 UV-I 56 W/m 10,2 C 10,7 C 0,0 km/h (0 Bft) 0,00 %
09.10.2015 08:22 10,9 C 96 % 1020,3 hPa 0,0 l/m 0,0 km/h (0 Bft) O 97 0 min 0,000 mm 0,0 UV-I 62 W/m 10,3 C 10,9 C 0,0 km/h (0 Bft) 0,00 %
09.10.2015 08:27 10,9 C 96 % 1020,1 hPa 0,0 l/m 0,0 km/h (0 Bft) O 97 0 min 0,000 mm 0,0 UV-I 69 W/m 10,3 C 10,9 C 0,0 km/h (0 Bft) 0,00 %
09.10.2015 08:32 11,0 C 96 % 1019,9 hPa 0,0 l/m 0,0 km/h (0 Bft) O 97 0 min 0,000 mm 0,0 UV-I 80 W/m 10,4 C 11,0 C 0,0 km/h (0 Bft) 0,00 %
09.10.2015 08:37 11,2 C 96 % 1020,0 hPa 0,0 l/m 0,0 km/h (0 Bft) O-SO 112 0 min 0,000 mm 0,0 UV-I 82 W/m 10,6 C 11,2 C 0,0 km/h (0 Bft) 0,00 %
09.10.2015 08:42 11,3 C 96 % 1020,1 hPa 0,0 l/m 0,0 km/h (0 Bft) O-SO 114 0 min 0,000 mm 0,0 UV-I 81 W/m 10,7 C 11,3 C 0,0 km/h (0 Bft) 0,00 %
09.10.2015 08:47 11,4 C 96 % 1020,3 hPa 0,0 l/m 0,0 km/h (0 Bft) S 190 0 min 0,000 mm 0,0 UV-I 85 W/m 10,8 C 11,4 C 0,0 km/h (0 Bft) 0,00 %
09.10.2015 08:52 11,4 C 96 % 1020,2 hPa 0,0 l/m 0,0 km/h (0 Bft) S 173 0 min 0,000 mm 0,0 UV-I 85 W/m 10,8 C 11,4 C 0,0 km/h (0 Bft) 0,00 %
09.10.2015 08:57 11,5 C 95 % 1020,1 hPa 0,0 l/m 0,0 km/h (0 Bft) S-SW 196 0 min 0,000 mm 0,0 UV-I 91 W/m 10,7 C 11,5 C 0,0 km/h (0 Bft) 0,00 %
09.10.2015 09:02 11,6 C 95 % 1020,2 hPa 0,0 l/m 0,0 km/h (0 Bft) S 176 0 min 0,000 mm 0,0 UV-I 98 W/m 10,8 C 11,6 C 0,0 km/h (0 Bft) 0,00 %
09.10.2015 09:07 11,6 C 95 % 1020,2 hPa 0,0 l/m 0,0 km/h (0 Bft) O-NO 77 0 min 0,000 mm 0,0 UV-I 96 W/m 10,8 C 11,6 C 0,0 km/h (0 Bft) 0,00 %
09.10.2015 09:12 11,6 C 95 % 1020,1 hPa 0,0 l/m 0,0 km/h (0 Bft) O 79 0 min 0,000 mm 1,0 UV-I 109 W/m 10,8 C 11,6 C 0,0 km/h (0 Bft) 0,00 %
09.10.2015 09:17 11,6 C 95 % 1020,1 hPa 0,0 l/m 0,0 km/h (0 Bft) O 85 0 min 0,000 mm 1,0 UV-I 134 W/m 10,8 C 11,6 C 0,0 km/h (0 Bft) 0,00 %
09.10.2015 09:22 11,8 C 94 % 1019,9 hPa 0,0 l/m 0,0 km/h (0 Bft) O-NO 77 0 min 0,000 mm 1,0 UV-I 155 W/m 10,9 C 11,8 C 0,0 km/h (0 Bft) 0,00 %
09.10.2015 09:27 11,9 C 94 % 1020,1 hPa 0,0 l/m 0,0 km/h (0 Bft) O-SO 120 0 min 0,000 mm 1,0 UV-I 165 W/m 11,0 C 11,9 C 0,0 km/h (0 Bft) 0,00 %
09.10.2015 09:32 12,1 C 94 % 1019,9 hPa 0,0 l/m 0,0 km/h (0 Bft) O-SO 113 0 min 0,000 mm 1,0 UV-I 175 W/m 11,2 C 12,1 C 0,0 km/h (0 Bft) 0,00 %
09.10.2015 09:37 12,4 C 93 % 1020,0 hPa 0,0 l/m 0,0 km/h (0 Bft) O-NO 60 0 min 0,000 mm 1,0 UV-I 175 W/m 11,3 C 12,4 C 0,0 km/h (0 Bft) 0,00 %
09.10.2015 09:42 12,6 C 93 % 1019,8 hPa 0,0 l/m 0,0 km/h (0 Bft) N-NO 33 0 min 0,000 mm 1,0 UV-I 179 W/m 11,5 C 12,6 C 0,0 km/h (0 Bft) 0,00 %
09.10.2015 09:47 12,8 C 92 % 1019,9 hPa 0,0 l/m 0,0 km/h (0 Bft) O 88 0 min 0,000 mm 1,0 UV-I 186 W/m 11,5 C 12,8 C 0,0 km/h (0 Bft) 0,00 %
09.10.2015 09:52 12,9 C 90 % 1019,8 hPa 0,0 l/m 0,0 km/h (0 Bft) O-NO 78 0 min 0,000 mm 1,0 UV-I 197 W/m 11,3 C 12,9 C 0,0 km/h (0 Bft) 0,00 %
09.10.2015 09:57 13,1 C 88 % 1019,9 hPa 0,0 l/m 0,0 km/h (0 Bft) O 90 0 min 0,000 mm 1,0 UV-I 200 W/m 11,2 C 13,1 C 0,0 km/h (0 Bft) 0,00 %
09.10.2015 10:02 13,4 C 87 % 1019,9 hPa 0,0 l/m 0,7 km/h (0 Bft) SO 136 0 min 0,000 mm 1,0 UV-I 203 W/m 11,3 C 13,4 C 4,0 km/h (1 Bft) 0,00 %
09.10.2015 10:07 13,6 C 87 % 1019,8 hPa 0,0 l/m 0,0 km/h (0 Bft) N-NO 31 0 min 0,000 mm 1,0 UV-I 207 W/m 11,5 C 13,6 C 0,0 km/h (0 Bft) 0,00 %
09.10.2015 10:12 13,6 C 84 % 1019,7 hPa 0,0 l/m 0,0 km/h (0 Bft) O-NO 70 0 min 0,000 mm 1,0 UV-I 202 W/m 10,9 C 13,6 C 0,0 km/h (0 Bft) 0,00 %
09.10.2015 10:17 13,4 C 83 % 1019,9 hPa 0,0 l/m 0,0 km/h (0 Bft) NO 46 0 min 0,000 mm 1,0 UV-I 199 W/m 10,6 C 13,4 C 0,0 km/h (0 Bft) 0,00 %
09.10.2015 10:22 13,2 C 83 % 1019,7 hPa 0,0 l/m 0,0 km/h (0 Bft) NO 44 0 min 0,000 mm 1,0 UV-I 196 W/m 10,4 C 13,2 C 0,0 km/h (0 Bft) 0,00 %
09.10.2015 10:27 13,0 C 83 % 1019,6 hPa 0,0 l/m 0,0 km/h (0 Bft) O-NO 64 0 min 0,000 mm 1,0 UV-I 202 W/m 10,2 C 13,0 C 0,0 km/h (0 Bft) 0,00 %
09.10.2015 10:32 13,0 C 83 % 1019,7 hPa 0,0 l/m 0,0 km/h (0 Bft) NO 48 0 min 0,000 mm 1,0 UV-I 213 W/m 10,2 C 13,0 C 0,0 km/h (0 Bft) 0,00 %
09.10.2015 10:37 13,0 C 85 % 1019,9 hPa 0,0 l/m 0,0 km/h (0 Bft) O-NO 71 0 min 0,000 mm 1,0 UV-I 202 W/m 10,5 C 13,0 C 0,0 km/h (0 Bft) 0,00 %
09.10.2015 10:42 12,9 C 84 % 1019,8 hPa 0,0 l/m 0,0 km/h (0 Bft) NO 45 0 min 0,000 mm 1,0 UV-I 227 W/m 10,3 C 12,9 C 0,0 km/h (0 Bft) 0,00 %
09.10.2015 10:47 13,0 C 84 % 1019,6 hPa 0,0 l/m 0,0 km/h (0 Bft) NO 52 5 min 0,000 mm 1,0 UV-I 275 W/m 10,4 C 13,0 C 0,0 km/h (0 Bft) 0,00 %
09.10.2015 10:52 13,4 C 82 % 1019,7 hPa 0,0 l/m 0,0 km/h (0 Bft) O-NO 67 0 min 0,000 mm 1,0 UV-I 274 W/m 10,4 C 13,4 C 0,0 km/h (0 Bft) 0,00 %
09.10.2015 10:57 13,9 C 81 % 1019,6 hPa 0,0 l/m 0,0 km/h (0 Bft) NO 41 0 min 0,000 mm 1,0 UV-I 270 W/m 10,7 C 13,9 C 0,0 km/h (0 Bft) 0,00 %
09.10.2015 11:02 14,1 C 81 % 1019,5 hPa 0,0 l/m 0,0 km/h (0 Bft) O-NO 58 0 min 0,000 mm 1,0 UV-I 254 W/m 10,9 C 14,1 C 0,0 km/h (0 Bft) 0,00 %
09.10.2015 11:07 14,0 C 81 % 1019,8 hPa 0,0 l/m 0,0 km/h (0 Bft) N-NO 32 0 min 0,000 mm 1,0 UV-I 236 W/m 10,8 C 14,0 C 0,0 km/h (0 Bft) 0,00 %
09.10.2015 11:12 13,7 C 81 % 1019,6 hPa 0,0 l/m 0,0 km/h (0 Bft) NO 56 0 min 0,000 mm 1,0 UV-I 233 W/m 10,5 C 13,7 C 0,0 km/h (0 Bft) 0,00 %
09.10.2015 11:17 13,4 C 82 % 1019,7 hPa 0,0 l/m 0,0 km/h (0 Bft) NO 45 0 min 0,000 mm 1,0 UV-I 249 W/m 10,4 C 13,4 C 0,0 km/h (0 Bft) 0,00 %
09.10.2015 11:22 13,3 C 82 % 1019,5 hPa 0,0 l/m 0,0 km/h (0 Bft) O-NO 68 0 min 0,000 mm 1,0 UV-I 252 W/m 10,3 C 13,3 C 0,0 km/h (0 Bft) 0,00 %
09.10.2015 11:27 13,3 C 83 % 1019,6 hPa 0,0 l/m 0,0 km/h (0 Bft) NO 43 0 min 0,000 mm 1,0 UV-I 236 W/m 10,5 C 13,3 C 0,0 km/h (0 Bft) 0,00 %
09.10.2015 11:32 13,3 C 84 % 1019,5 hPa 0,0 l/m 0,0 km/h (0 Bft) O-NO 67 0 min 0,000 mm 1,0 UV-I 261 W/m 10,7 C 13,3 C 0,0 km/h (0 Bft) 0,00 %
09.10.2015 11:37 13,3 C 84 % 1019,5 hPa 0,0 l/m 0,0 km/h (0 Bft) NO 41 5 min 0,000 mm 1,0 UV-I 309 W/m 10,7 C 13,3 C 0,0 km/h (0 Bft) 0,00 %
09.10.2015 11:42 13,4 C 83 % 1019,4 hPa 0,0 l/m 0,0 km/h (0 Bft) NO 52 5 min 0,000 mm 1,0 UV-I 342 W/m 10,6 C 13,4 C 0,0 km/h (0 Bft) 0,00 %
09.10.2015 11:47 13,5 C 83 % 1019,2 hPa 0,0 l/m 0,0 km/h (0 Bft) O-NO 65 5 min 0,000 mm 1,0 UV-I 376 W/m 10,7 C 13,5 C 0,0 km/h (0 Bft) 0,00 %
09.10.2015 11:52 13,6 C 82 % 1019,2 hPa 0,0 l/m 0,0 km/h (0 Bft) O-NO 64 5 min 0,000 mm 1,0 UV-I 385 W/m 10,6 C 13,6 C 0,0 km/h (0 Bft) 0,00 %
09.10.2015 11:57 13,8 C 81 % 1019,2 hPa 0,0 l/m 0,0 km/h (0 Bft) O-NO 67 5 min 0,000 mm 1,0 UV-I 418 W/m 10,6 C 13,8 C 0,0 km/h (0 Bft) 0,00 %
09.10.2015 12:02 14,1 C 80 % 1019,1 hPa 0,0 l/m 0,0 km/h (0 Bft) O 90 5 min 0,000 mm 1,0 UV-I 447 W/m 10,7 C 14,1 C 0,0 km/h (0 Bft) 0,00 %
09.10.2015 12:07 14,4 C 77 % 1019,3 hPa 0,0 l/m 0,0 km/h (0 Bft) O-NO 63 5 min 0,000 mm 1,0 UV-I 431 W/m 10,4 C 14,4 C 0,0 km/h (0 Bft) 0,00 %
09.10.2015 12:12 14,6 C 75 % 1019,2 hPa 0,0 l/m 0,0 km/h (0 Bft) NO 37 5 min 0,000 mm 1,0 UV-I 410 W/m 10,2 C 14,6 C 0,0 km/h (0 Bft) 0,00 %
09.10.2015 12:17 14,6 C 74 % 1019,1 hPa 0,0 l/m 0,0 km/h (0 Bft) N-NO 28 5 min 0,000 mm 1,0 UV-I 422 W/m 10,0 C 14,6 C 0,0 km/h (0 Bft) 0,00 %
09.10.2015 12:22 14,6 C 75 % 1019,3 hPa 0,0 l/m 0,0 km/h (0 Bft) NO 36 5 min 0,000 mm 1,0 UV-I 402 W/m 10,2 C 14,6 C 0,0 km/h (0 Bft) 0,00 %
09.10.2015 12:27 14,6 C 76 % 1019,1 hPa 0,0 l/m 0,0 km/h (0 Bft) O-NO 67 5 min 0,000 mm 2,0 UV-I 391 W/m 10,4 C 14,6 C 0,0 km/h (0 Bft) 0,00 %
09.10.2015 12:32 14,8 C 73 % 1019,2 hPa 0,0 l/m 0,0 km/h (0 Bft) N-NO 30 5 min 0,000 mm 2,0 UV-I 385 W/m 10,0 C 14,8 C 0,0 km/h (0 Bft) 0,00 %
09.10.2015 12:37 15,3 C 73 % 1019,1 hPa 0,0 l/m 1,4 km/h (1 Bft) O-SO 103 5 min 0,000 mm 2,0 UV-I 420 W/m 10,5 C 15,3 C 4,0 km/h (1 Bft) 0,00 %
09.10.2015 12:42 15,8 C 71 % 1018,7 hPa 0,0 l/m 0,0 km/h (0 Bft) NO 56 5 min 0,000 mm 2,0 UV-I 399 W/m 10,6 C 15,8 C 0,0 km/h (0 Bft) 0,00 %
09.10.2015 12:47 15,9 C 73 % 1018,9 hPa 0,0 l/m 0,0 km/h (0 Bft) O-NO 57 5 min 0,000 mm 1,0 UV-I 387 W/m 11,1 C 15,9 C 0,0 km/h (0 Bft) 0,00 %
09.10.2015 12:52 15,5 C 74 % 1018,8 hPa 0,0 l/m 0,0 km/h (0 Bft) NO 44 5 min 0,000 mm 1,0 UV-I 383 W/m 10,9 C 15,5 C 0,0 km/h (0 Bft) 0,00 %
09.10.2015 12:57 15,1 C 76 % 1018,9 hPa 0,0 l/m 0,0 km/h (0 Bft) N-NO 32 0 min 0,000 mm 1,0 UV-I 256 W/m 10,9 C 15,1 C 0,0 km/h (0 Bft) 0,00 %
09.10.2015 13:02 14,8 C 77 % 1018,8 hPa 0,0 l/m 0,0 km/h (0 Bft) N-NO 23 0 min 0,000 mm 1,0 UV-I 269 W/m 10,8 C 14,8 C 0,0 km/h (0 Bft) 0,00 %
09.10.2015 13:07 14,6 C 76 % 1018,8 hPa 0,0 l/m 0,0 km/h (0 Bft) NO 36 0 min 0,000 mm 1,0 UV-I 321 W/m 10,4 C 14,6 C 0,0 km/h (0 Bft) 0,00 %
09.10.2015 13:12 14,5 C 76 % 1018,9 hPa 0,0 l/m 0,0 km/h (0 Bft) NO 46 5 min 0,000 mm 2,0 UV-I 364 W/m 10,3 C 14,5 C 0,0 km/h (0 Bft) 0,00 %
09.10.2015 13:17 14,5 C 74 % 1018,7 hPa 0,0 l/m 0,0 km/h (0 Bft) SW 219 5 min 0,000 mm 2,0 UV-I 356 W/m 9,9 C 14,5 C 0,0 km/h (0 Bft) 0,00 %
09.10.2015 13:22 14,9 C 73 % 1018,7 hPa 0,0 l/m 0,0 km/h (0 Bft) O-SO 104 5 min 0,000 mm 2,0 UV-I 347 W/m 10,1 C 14,9 C 0,0 km/h (0 Bft) 0,00 %
09.10.2015 13:27 15,4 C 72 % 1018,8 hPa 0,0 l/m 0,4 km/h (0 Bft) NO 54 5 min 0,000 mm 2,0 UV-I 346 W/m 10,4 C 15,4 C 4,0 km/h (1 Bft) 0,00 %
09.10.2015 13:32 15,5 C 71 % 1018,5 hPa 0,0 l/m 0,0 km/h (0 Bft) O 81 5 min 0,000 mm 1,0 UV-I 317 W/m 10,3 C 15,5 C 0,0 km/h (0 Bft) 0,00 %
09.10.2015 13:37 15,4 C 72 % 1018,5 hPa 0,0 l/m 0,0 km/h (0 Bft) NO 49 0 min 0,000 mm 1,0 UV-I 309 W/m 10,4 C 15,4 C 0,0 km/h (0 Bft) 0,00 %
09.10.2015 13:42 15,3 C 72 % 1018,6 hPa 0,0 l/m 0,0 km/h (0 Bft) NO 34 0 min 0,000 mm 1,0 UV-I 310 W/m 10,3 C 15,3 C 0,0 km/h (0 Bft) 0,00 %
09.10.2015 13:47 15,2 C 73 % 1018,5 hPa 0,0 l/m 2,2 km/h (1 Bft) NO 56 0 min 0,000 mm 1,0 UV-I 292 W/m 10,4 C 15,2 C 4,0 km/h (1 Bft) 0,00 %
09.10.2015 13:52 15,0 C 74 % 1018,5 hPa 0,0 l/m 0,0 km/h (0 Bft) NO 50 0 min 0,000 mm 1,0 UV-I 274 W/m 10,4 C 15,0 C 0,0 km/h (0 Bft) 0,00 %
09.10.2015 13:57 14,8 C 74 % 1018,3 hPa 0,0 l/m 0,0 km/h (0 Bft) O-NO 70 0 min 0,000 mm 1,0 UV-I 266 W/m 10,2 C 14,8 C 0,0 km/h (0 Bft) 0,00 %
09.10.2015 14:02 14,8 C 74 % 1018,3 hPa 0,0 l/m 0,0 km/h (0 Bft) O-NO 64 0 min 0,000 mm 1,0 UV-I 285 W/m 10,2 C 14,8 C 0,0 km/h (0 Bft) 0,00 %
09.10.2015 14:07 14,9 C 74 % 1018,3 hPa 0,0 l/m 0,4 km/h (0 Bft) NO 51 0 min 0,000 mm 1,0 UV-I 273 W/m 10,3 C 14,9 C 4,0 km/h (1 Bft) 0,00 %
09.10.2015 14:12 14,8 C 75 % 1018,2 hPa 0,0 l/m 0,0 km/h (0 Bft) O 80 0 min 0,000 mm 1,0 UV-I 281 W/m 10,4 C 14,8 C 0,0 km/h (0 Bft) 0,00 %
09.10.2015 14:17 15,0 C 72 % 1018,2 hPa 0,0 l/m 0,0 km/h (0 Bft) O-NO 59 5 min 0,000 mm 1,0 UV-I 310 W/m 10,0 C 15,0 C 0,0 km/h (0 Bft) 0,00 %
09.10.2015 14:22 15,2 C 72 % 1018,1 hPa 0,0 l/m 0,0 km/h (0 Bft) O-NO 62 5 min 0,000 mm 1,0 UV-I 338 W/m 10,2 C 15,2 C 0,0 km/h (0 Bft) 0,00 %
09.10.2015 14:27 15,5 C 71 % 1018,0 hPa 0,0 l/m 0,0 km/h (0 Bft) O-NO 64 5 min 0,000 mm 1,0 UV-I 366 W/m 10,3 C 15,5 C 0,0 km/h (0 Bft) 0,00 %
09.10.2015 14:32 15,8 C 68 % 1017,9 hPa 0,0 l/m 0,0 km/h (0 Bft) O-NO 58 5 min 0,000 mm 1,0 UV-I 541 W/m 9,9 C 15,8 C 0,0 km/h (0 Bft) 0,00 %
09.10.2015 14:37 16,1 C 69 % 1017,6 hPa 0,0 l/m 0,0 km/h (0 Bft) NO 50 5 min 0,000 mm 1,0 UV-I 519 W/m 10,4 C 16,1 C 0,0 km/h (0 Bft) 0,00 %
09.10.2015 14:42 16,4 C 66 % 1018,0 hPa 0,0 l/m 0,0 km/h (0 Bft) O-NO 67 5 min 0,000 mm 1,0 UV-I 381 W/m 10,0 C 16,4 C 0,0 km/h (0 Bft) 0,00 %
09.10.2015 14:47 16,9 C 65 % 1017,9 hPa 0,0 l/m 0,4 km/h (0 Bft) O-NO 63 5 min 0,000 mm 1,0 UV-I 332 W/m 10,3 C 16,9 C 4,0 km/h (1 Bft) 0,00 %
09.10.2015 14:52 16,9 C 67 % 1017,9 hPa 0,0 l/m 0,0 km/h (0 Bft) O-NO 60 5 min 0,000 mm 1,0 UV-I 306 W/m 10,7 C 16,9 C 0,0 km/h (0 Bft) 0,00 %
09.10.2015 14:57 16,6 C 68 % 1017,7 hPa 0,0 l/m 0,0 km/h (0 Bft) O-NO 65 5 min 0,000 mm 1,0 UV-I 309 W/m 10,7 C 16,6 C 0,0 km/h (0 Bft) 0,00 %
09.10.2015 15:02 16,6 C 66 % 1017,7 hPa 0,0 l/m 0,4 km/h (0 Bft) O-NO 72 5 min 0,000 mm 1,0 UV-I 313 W/m 10,2 C 16,6 C 4,0 km/h (1 Bft) 0,00 %
09.10.2015 15:07 16,7 C 66 % 1017,7 hPa 0,0 l/m 0,0 km/h (0 Bft) O-NO 66 5 min 0,000 mm 1,0 UV-I 299 W/m 10,3 C 16,7 C 0,0 km/h (0 Bft) 0,00 %
09.10.2015 15:12 16,6 C 67 % 1017,6 hPa 0,0 l/m 0,0 km/h (0 Bft) O 90 5 min 0,000 mm 1,0 UV-I 275 W/m 10,4 C 16,6 C 0,0 km/h (0 Bft) 0,00 %
09.10.2015 15:17 16,5 C 68 % 1017,7 hPa 0,0 l/m 0,0 km/h (0 Bft) NO 44 5 min 0,000 mm 1,0 UV-I 270 W/m 10,6 C 16,5 C 0,0 km/h (0 Bft) 0,00 %
09.10.2015 15:22 16,5 C 67 % 1017,7 hPa 0,0 l/m 0,0 km/h (0 Bft) O-NO 64 5 min 0,000 mm 1,0 UV-I 262 W/m 10,4 C 16,5 C 0,0 km/h (0 Bft) 0,00 %
09.10.2015 15:27 16,4 C 67 % 1017,7 hPa 0,0 l/m 1,8 km/h (1 Bft) O 82 5 min 0,000 mm 1,0 UV-I 261 W/m 10,3 C 16,4 C 4,0 km/h (1 Bft) 0,00 %
09.10.2015 15:32 16,2 C 69 % 1017,7 hPa 0,0 l/m 0,0 km/h (0 Bft) O-NO 65 5 min 0,000 mm 1,0 UV-I 253 W/m 10,5 C 16,2 C 0,0 km/h (0 Bft) 0,00 %
09.10.2015 15:37 16,0 C 69 % 1017,8 hPa 0,0 l/m 3,2 km/h (1 Bft) O 93 5 min 0,000 mm 1,0 UV-I 251 W/m 10,3 C 16,0 C 4,0 km/h (1 Bft) 0,00 %
09.10.2015 15:42 15,9 C 69 % 1017,7 hPa 0,0 l/m 0,0 km/h (0 Bft) O 79 5 min 0,000 mm 1,0 UV-I 244 W/m 10,2 C 15,9 C 0,0 km/h (0 Bft) 0,00 %
09.10.2015 15:47 15,9 C 68 % 1017,9 hPa 0,0 l/m 0,0 km/h (0 Bft) O 81 5 min 0,000 mm 1,0 UV-I 243 W/m 10,0 C 15,9 C 0,0 km/h (0 Bft) 0,00 %
09.10.2015 15:52 16,0 C 68 % 1017,8 hPa 0,0 l/m 3,2 km/h (1 Bft) SO 124 5 min 0,000 mm 1,0 UV-I 228 W/m 10,1 C 16,0 C 4,0 km/h (1 Bft) 0,00 %
09.10.2015 15:57 16,2 C 67 % 1017,7 hPa 0,0 l/m 0,0 km/h (0 Bft) O-NO 61 5 min 0,000 mm 1,0 UV-I 226 W/m 10,1 C 16,2 C 0,0 km/h (0 Bft) 0,00 %
09.10.2015 16:02 16,5 C 68 % 1017,7 hPa 0,0 l/m 0,0 km/h (0 Bft) O-NO 60 5 min 0,000 mm 1,0 UV-I 231 W/m 10,6 C 16,5 C 0,0 km/h (0 Bft) 0,00 %
09.10.2015 16:07 16,7 C 67 % 1017,6 hPa 0,0 l/m 0,0 km/h (0 Bft) O 94 5 min 0,000 mm 1,0 UV-I 220 W/m 10,5 C 16,7 C 0,0 km/h (0 Bft) 0,00 %
09.10.2015 16:12 16,7 C 68 % 1017,6 hPa 0,0 l/m 0,0 km/h (0 Bft) O 92 5 min 0,000 mm 1,0 UV-I 214 W/m 10,8 C 16,7 C 0,0 km/h (0 Bft) 0,00 %
09.10.2015 16:17 16,6 C 68 % 1017,6 hPa 0,0 l/m 0,0 km/h (0 Bft) O-NO 68 5 min 0,000 mm 1,0 UV-I 206 W/m 10,7 C 16,6 C 0,0 km/h (0 Bft) 0,00 %
09.10.2015 16:22 16,3 C 68 % 1017,8 hPa 0,0 l/m 0,0 km/h (0 Bft) O 86 0 min 0,000 mm 1,0 UV-I 173 W/m 10,4 C 16,3 C 0,0 km/h (0 Bft) 0,00 %
09.10.2015 16:27 16,1 C 68 % 1017,9 hPa 0,0 l/m 0,0 km/h (0 Bft) O-NO 65 0 min 0,000 mm 1,0 UV-I 136 W/m 10,2 C 16,1 C 0,0 km/h (0 Bft) 0,00 %
09.10.2015 16:32 16,0 C 68 % 1017,8 hPa 0,0 l/m 0,0 km/h (0 Bft) O-NO 72 0 min 0,000 mm 1,0 UV-I 122 W/m 10,1 C 16,0 C 0,0 km/h (0 Bft) 0,00 %
09.10.2015 16:37 15,9 C 70 % 1018,1 hPa 0,0 l/m 0,0 km/h (0 Bft) O-NO 61 0 min 0,000 mm 1,0 UV-I 100 W/m 10,4 C 15,9 C 0,0 km/h (0 Bft) 0,00 %
09.10.2015 16:42 15,8 C 70 % 1018,0 hPa 0,0 l/m 0,0 km/h (0 Bft) O-NO 71 0 min 0,000 mm 0,0 UV-I 96 W/m 10,3 C 15,8 C 0,0 km/h (0 Bft) 0,00 %
09.10.2015 16:47 15,7 C 71 % 1018,0 hPa 0,0 l/m 0,0 km/h (0 Bft) O-NO 76 0 min 0,000 mm 1,0 UV-I 102 W/m 10,5 C 15,7 C 0,0 km/h (0 Bft) 0,00 %
09.10.2015 16:52 15,6 C 71 % 1018,1 hPa 0,0 l/m 0,0 km/h (0 Bft) O 100 0 min 0,000 mm 0,0 UV-I 102 W/m 10,4 C 15,6 C 0,0 km/h (0 Bft) 0,00 %
09.10.2015 16:57 15,6 C 71 % 1017,9 hPa 0,0 l/m 0,0 km/h (0 Bft) O 86 0 min 0,000 mm 0,0 UV-I 90 W/m 10,4 C 15,6 C 0,0 km/h (0 Bft) 0,00 %
09.10.2015 17:02 15,5 C 71 % 1018,1 hPa 0,0 l/m 0,0 km/h (0 Bft) O-NO 71 0 min 0,000 mm 0,0 UV-I 80 W/m 10,3 C 15,5 C 0,0 km/h (0 Bft) 0,00 %
09.10.2015 17:07 15,5 C 72 % 1018,0 hPa 0,0 l/m 0,0 km/h (0 Bft) O 90 0 min 0,000 mm 0,0 UV-I 69 W/m 10,5 C 15,5 C 0,0 km/h (0 Bft) 0,00 %
09.10.2015 17:12 15,4 C 72 % 1017,8 hPa 0,0 l/m 0,0 km/h (0 Bft) O 93 0 min 0,000 mm 0,0 UV-I 57 W/m 10,4 C 15,4 C 0,0 km/h (0 Bft) 0,00 %
09.10.2015 17:17 15,3 C 73 % 1018,0 hPa 0,0 l/m 0,0 km/h (0 Bft) O-NO 73 0 min 0,000 mm 0,0 UV-I 48 W/m 10,5 C 15,3 C 0,0 km/h (0 Bft) 0,00 %
09.10.2015 17:22 15,2 C 73 % 1018,0 hPa 0,0 l/m 0,0 km/h (0 Bft) O-SO 105 0 min 0,000 mm 0,0 UV-I 38 W/m 10,4 C 15,2 C 0,0 km/h (0 Bft) 0,00 %
09.10.2015 17:27 15,1 C 74 % 1018,1 hPa 0,0 l/m 0,0 km/h (0 Bft) O-NO 67 0 min 0,000 mm 0,0 UV-I 30 W/m 10,5 C 15,1 C 0,0 km/h (0 Bft) 0,00 %
09.10.2015 17:32 15,1 C 74 % 1018,1 hPa 0,0 l/m 0,0 km/h (0 Bft) O-NO 65 0 min 0,000 mm 0,0 UV-I 29 W/m 10,5 C 15,1 C 0,0 km/h (0 Bft) 0,00 %
09.10.2015 17:37 15,0 C 75 % 1018,1 hPa 0,0 l/m 0,0 km/h (0 Bft) O-NO 63 0 min 0,000 mm 0,0 UV-I 20 W/m 10,6 C 15,0 C 0,0 km/h (0 Bft) 0,00 %
09.10.2015 17:42 14,8 C 76 % 1018,1 hPa 0,0 l/m 0,0 km/h (0 Bft) O-NO 69 0 min 0,000 mm 0,0 UV-I 11 W/m 10,6 C 14,8 C 0,0 km/h (0 Bft) 0,00 %
09.10.2015 17:47 14,7 C 77 % 1018,2 hPa 0,0 l/m 0,0 km/h (0 Bft) O-NO 64 0 min 0,000 mm 0,0 UV-I 9 W/m 10,7 C 14,7 C 0,0 km/h (0 Bft) 0,00 %
09.10.2015 17:52 14,6 C 77 % 1018,1 hPa 0,0 l/m 0,0 km/h (0 Bft) O-NO 71 0 min 0,000 mm 0,0 UV-I 10 W/m 10,6 C 14,6 C 0,0 km/h (0 Bft) 0,00 %
09.10.2015 17:57 14,5 C 77 % 1018,2 hPa 0,0 l/m 0,0 km/h (0 Bft) O-NO 65 0 min 0,000 mm 0,0 UV-I 8 W/m 10,5 C 14,5 C 0,0 km/h (0 Bft) 0,00 %
09.10.2015 18:02 14,4 C 78 % 1018,3 hPa 0,0 l/m 0,0 km/h (0 Bft) O-NO 64 0 min 0,000 mm 0,0 UV-I 6 W/m 10,6 C 14,4 C 0,0 km/h (0 Bft) 0,00 %
09.10.2015 18:07 14,4 C 80 % 1018,3 hPa 0,0 l/m 0,0 km/h (0 Bft) NO 56 0 min 0,000 mm 0,0 UV-I 4 W/m 11,0 C 14,4 C 0,0 km/h (0 Bft) 0,00 %
09.10.2015 18:12 14,3 C 80 % 1018,3 hPa 0,0 l/m 0,0 km/h (0 Bft) NO 55 0 min 0,000 mm 0,0 UV-I 1 W/m 10,9 C 14,3 C 0,0 km/h (0 Bft) 0,00 %
09.10.2015 18:17 14,2 C 81 % 1018,3 hPa 0,0 l/m 0,0 km/h (0 Bft) O-NO 68 0 min 0,000 mm 0,0 UV-I 0 W/m 11,0 C 14,2 C 0,0 km/h (0 Bft) 0,00 %
09.10.2015 18:22 14,1 C 80 % 1018,5 hPa 0,0 l/m 0,0 km/h (0 Bft) O-NO 78 0 min 0,000 mm 0,0 UV-I 0 W/m 10,7 C 14,1 C 0,0 km/h (0 Bft) 0,00 %
09.10.2015 18:27 14,0 C 80 % 1018,2 hPa 0,0 l/m 0,0 km/h (0 Bft) O-NO 65 0 min 0,000 mm 0,0 UV-I 0 W/m 10,6 C 14,0 C 0,0 km/h (0 Bft) 0,00 %
09.10.2015 18:32 13,9 C 81 % 1018,3 hPa 0,0 l/m 0,0 km/h (0 Bft) O 90 0 min 0,000 mm 0,0 UV-I 0 W/m 10,7 C 13,9 C 0,0 km/h (0 Bft) 0,00 %
09.10.2015 18:37 13,9 C 81 % 1018,3 hPa 0,0 l/m 0,0 km/h (0 Bft) O-NO 65 0 min 0,000 mm 0,0 UV-I 0 W/m 10,7 C 13,9 C 0,0 km/h (0 Bft) 0,00 %
09.10.2015 18:42 13,9 C 81 % 1018,2 hPa 0,0 l/m 0,0 km/h (0 Bft) O-NO 68 0 min 0,000 mm 0,0 UV-I 0 W/m 10,7 C 13,9 C 0,0 km/h (0 Bft) 0,00 %
09.10.2015 18:47 13,8 C 82 % 1018,0 hPa 0,0 l/m 0,0 km/h (0 Bft) O-NO 65 0 min 0,000 mm 0,0 UV-I 0 W/m 10,8 C 13,8 C 0,0 km/h (0 Bft) 0,00 %
09.10.2015 18:52 13,8 C 82 % 1018,3 hPa 0,0 l/m 0,0 km/h (0 Bft) O-NO 67 0 min 0,000 mm 0,0 UV-I 0 W/m 10,8 C 13,8 C 0,0 km/h (0 Bft) 0,00 %
09.10.2015 18:57 13,8 C 83 % 1018,2 hPa 0,0 l/m 0,0 km/h (0 Bft) O-NO 65 0 min 0,000 mm 0,0 UV-I 0 W/m 11,0 C 13,8 C 0,0 km/h (0 Bft) 0,00 %
09.10.2015 19:02 13,7 C 83 % 1018,2 hPa 0,0 l/m 0,0 km/h (0 Bft) NO 54 0 min 0,000 mm 0,0 UV-I 0 W/m 10,9 C 13,7 C 0,0 km/h (0 Bft) 0,00 %
09.10.2015 19:07 13,6 C 84 % 1018,3 hPa 0,0 l/m 0,0 km/h (0 Bft) O-NO 59 0 min 0,000 mm 0,0 UV-I 0 W/m 10,9 C 13,6 C 0,0 km/h (0 Bft) 0,00 %
09.10.2015 19:12 13,5 C 84 % 1018,2 hPa 0,0 l/m 0,0 km/h (0 Bft) O-NO 59 0 min 0,000 mm 0,0 UV-I 0 W/m 10,8 C 13,5 C 0,0 km/h (0 Bft) 0,00 %
09.10.2015 19:17 13,3 C 84 % 1018,3 hPa 0,0 l/m 0,0 km/h (0 Bft) O-NO 71 0 min 0,000 mm 0,0 UV-I 0 W/m 10,7 C 13,3 C 0,0 km/h (0 Bft) 0,00 %
09.10.2015 19:22 13,2 C 84 % 1018,3 hPa 0,0 l/m 0,0 km/h (0 Bft) O-NO 66 0 min 0,000 mm 0,0 UV-I 0 W/m 10,6 C 13,2 C 0,0 km/h (0 Bft) 0,00 %
09.10.2015 19:27 13,2 C 85 % 1018,3 hPa 0,0 l/m 0,0 km/h (0 Bft) O-NO 65 0 min 0,000 mm 0,0 UV-I 0 W/m 10,7 C 13,2 C 0,0 km/h (0 Bft) 0,00 %
09.10.2015 19:32 13,1 C 85 % 1018,2 hPa 0,0 l/m 0,0 km/h (0 Bft) O-NO 61 0 min 0,000 mm 0,0 UV-I 0 W/m 10,6 C 13,1 C 0,0 km/h (0 Bft) 0,00 %
09.10.2015 19:37 13,1 C 86 % 1018,3 hPa 0,0 l/m 0,0 km/h (0 Bft) O-NO 59 0 min 0,000 mm 0,0 UV-I 0 W/m 10,8 C 13,1 C 0,0 km/h (0 Bft) 0,00 %
09.10.2015 19:42 13,0 C 86 % 1018,2 hPa 0,0 l/m 0,0 km/h (0 Bft) O-NO 69 0 min 0,000 mm 0,0 UV-I 0 W/m 10,7 C 13,0 C 0,0 km/h (0 Bft) 0,00 %
09.10.2015 19:47 13,0 C 88 % 1018,2 hPa 0,0 l/m 0,0 km/h (0 Bft) O-NO 75 0 min 0,000 mm 0,0 UV-I 0 W/m 11,1 C 13,0 C 0,0 km/h (0 Bft) 0,00 %
09.10.2015 19:52 12,9 C 88 % 1018,3 hPa 0,0 l/m 0,0 km/h (0 Bft) O 82 0 min 0,000 mm 0,0 UV-I 0 W/m 11,0 C 12,9 C 0,0 km/h (0 Bft) 0,00 %
09.10.2015 19:57 12,9 C 88 % 1018,2 hPa 0,0 l/m 0,0 km/h (0 Bft) O-NO 65 0 min 0,000 mm 0,0 UV-I 0 W/m 11,0 C 12,9 C 0,0 km/h (0 Bft) 0,00 %
09.10.2015 20:02 12,9 C 88 % 1018,2 hPa 0,0 l/m 0,0 km/h (0 Bft) O-NO 65 0 min 0,000 mm 0,0 UV-I 0 W/m 11,0 C 12,9 C 0,0 km/h (0 Bft) 0,00 %
09.10.2015 20:07 12,8 C 88 % 1018,3 hPa 0,0 l/m 0,0 km/h (0 Bft) O-NO 66 0 min 0,000 mm 0,0 UV-I 0 W/m 10,9 C 12,8 C 0,0 km/h (0 Bft) 0,00 %
09.10.2015 20:12 12,8 C 89 % 1018,3 hPa 0,0 l/m 0,0 km/h (0 Bft) O-NO 65 0 min 0,000 mm 0,0 UV-I 0 W/m 11,0 C 12,8 C 0,0 km/h (0 Bft) 0,00 %
09.10.2015 20:17 12,8 C 89 % 1018,2 hPa 0,0 l/m 0,0 km/h (0 Bft) O-NO 68 0 min 0,000 mm 0,0 UV-I 0 W/m 11,0 C 12,8 C 0,0 km/h (0 Bft) 0,00 %
09.10.2015 20:22 12,8 C 89 % 1018,1 hPa 0,0 l/m 0,0 km/h (0 Bft) O-NO 65 0 min 0,000 mm 0,0 UV-I 0 W/m 11,0 C 12,8 C 0,0 km/h (0 Bft) 0,00 %
09.10.2015 20:27 12,8 C 89 % 1018,3 hPa 0,0 l/m 0,0 km/h (0 Bft) O-NO 65 0 min 0,000 mm 0,0 UV-I 0 W/m 11,0 C 12,8 C 0,0 km/h (0 Bft) 0,00 %
09.10.2015 20:32 12,8 C 89 % 1018,2 hPa 0,0 l/m 0,0 km/h (0 Bft) NO 55 0 min 0,000 mm 0,0 UV-I 0 W/m 11,0 C 12,8 C 0,0 km/h (0 Bft) 0,00 %
09.10.2015 20:37 12,7 C 89 % 1018,3 hPa 0,0 l/m 0,0 km/h (0 Bft) O-NO 59 0 min 0,000 mm 0,0 UV-I 0 W/m 10,9 C 12,7 C 0,0 km/h (0 Bft) 0,00 %
09.10.2015 20:42 12,7 C 90 % 1018,3 hPa 0,0 l/m 0,0 km/h (0 Bft) NO 52 0 min 0,000 mm 0,0 UV-I 0 W/m 11,1 C 12,7 C 0,0 km/h (0 Bft) 0,00 %
09.10.2015 20:48 12,6 C 90 % 1018,3 hPa 0,0 l/m 0,0 km/h (0 Bft) O-NO 65 0 min 0,000 mm 0,0 UV-I 0 W/m 11,0 C 12,6 C 0,0 km/h (0 Bft) 0,00 %
09.10.2015 20:53 12,6 C 90 % 1018,3 hPa 0,0 l/m 0,0 km/h (0 Bft) O-NO 70 0 min 0,000 mm 0,0 UV-I 0 W/m 11,0 C 12,6 C 0,0 km/h (0 Bft) 0,00 %
09.10.2015 20:58 12,6 C 90 % 1018,2 hPa 0,0 l/m 0,0 km/h (0 Bft) O-NO 65 0 min 0,000 mm 0,0 UV-I 0 W/m 11,0 C 12,6 C 0,0 km/h (0 Bft) 0,00 %
09.10.2015 21:03 12,6 C 91 % 1018,2 hPa 0,0 l/m 0,0 km/h (0 Bft) O-NO 69 0 min 0,000 mm 0,0 UV-I 0 W/m 11,2 C 12,6 C 0,0 km/h (0 Bft) 0,00 %
09.10.2015 21:08 12,6 C 91 % 1018,3 hPa 0,0 l/m 0,0 km/h (0 Bft) O-NO 57 0 min 0,000 mm 0,0 UV-I 0 W/m 11,2 C 12,6 C 0,0 km/h (0 Bft) 0,00 %
09.10.2015 21:13 12,7 C 91 % 1018,4 hPa 0,0 l/m 0,0 km/h (0 Bft) O-NO 65 0 min 0,000 mm 0,0 UV-I 0 W/m 11,3 C 12,7 C 0,0 km/h (0 Bft) 0,00 %
09.10.2015 21:18 12,7 C 91 % 1018,4 hPa 0,0 l/m 0,0 km/h (0 Bft) NO 52 0 min 0,000 mm 0,0 UV-I 0 W/m 11,3 C 12,7 C 0,0 km/h (0 Bft) 0,00 %
09.10.2015 21:23 12,6 C 90 % 1018,5 hPa 0,0 l/m 0,0 km/h (0 Bft) O-NO 58 0 min 0,000 mm 0,0 UV-I 0 W/m 11,0 C 12,6 C 0,0 km/h (0 Bft) 0,00 %
09.10.2015 21:28 12,6 C 89 % 1018,5 hPa 0,0 l/m 0,0 km/h (0 Bft) NO 54 0 min 0,000 mm 0,0 UV-I 0 W/m 10,8 C 12,6 C 0,0 km/h (0 Bft) 0,00 %
09.10.2015 21:33 12,5 C 88 % 1018,4 hPa 0,0 l/m 0,0 km/h (0 Bft) O-NO 63 0 min 0,000 mm 0,0 UV-I 0 W/m 10,6 C 12,5 C 0,0 km/h (0 Bft) 0,00 %
09.10.2015 21:38 12,6 C 88 % 1018,5 hPa 0,0 l/m 0,0 km/h (0 Bft) O-NO 62 0 min 0,000 mm 0,0 UV-I 0 W/m 10,7 C 12,6 C 0,0 km/h (0 Bft) 0,00 %
09.10.2015 21:43 12,7 C 87 % 1018,5 hPa 0,0 l/m 0,0 km/h (0 Bft) O-NO 77 0 min 0,000 mm 0,0 UV-I 0 W/m 10,6 C 12,7 C 0,0 km/h (0 Bft) 0,00 %
09.10.2015 21:48 12,8 C 87 % 1018,5 hPa 0,0 l/m 0,0 km/h (0 Bft) O-NO 75 0 min 0,000 mm 0,0 UV-I 0 W/m 10,7 C 12,8 C 0,0 km/h (0 Bft) 0,00 %
09.10.2015 21:53 12,9 C 87 % 1018,5 hPa 0,0 l/m 0,0 km/h (0 Bft) O-NO 74 0 min 0,000 mm 0,0 UV-I 0 W/m 10,8 C 12,9 C 0,0 km/h (0 Bft) 0,00 %
09.10.2015 21:58 12,8 C 87 % 1018,4 hPa 0,0 l/m 1,8 km/h (1 Bft) O 100 0 min 0,000 mm 0,0 UV-I 0 W/m 10,7 C 12,8 C 4,0 km/h (1 Bft) 0,00 %
09.10.2015 22:03 12,8 C 87 % 1018,5 hPa 0,0 l/m 2,2 km/h (1 Bft) O 88 0 min 0,000 mm 0,0 UV-I 0 W/m 10,7 C 12,8 C 4,0 km/h (1 Bft) 0,00 %
09.10.2015 22:08 12,8 C 88 % 1018,6 hPa 0,0 l/m 1,8 km/h (1 Bft) O 100 0 min 0,000 mm 0,0 UV-I 0 W/m 10,9 C 12,8 C 4,0 km/h (1 Bft) 0,00 %
09.10.2015 22:13 12,7 C 88 % 1018,3 hPa 0,0 l/m 0,7 km/h (0 Bft) O-NO 77 0 min 0,000 mm 0,0 UV-I 0 W/m 10,8 C 12,7 C 4,0 km/h (1 Bft) 0,00 %
09.10.2015 22:18 12,7 C 88 % 1018,5 hPa 0,0 l/m 0,7 km/h (0 Bft) O-NO 76 0 min 0,000 mm 0,0 UV-I 0 W/m 10,8 C 12,7 C 4,0 km/h (1 Bft) 0,00 %
09.10.2015 22:23 12,6 C 88 % 1018,5 hPa 0,0 l/m 2,9 km/h (1 Bft) O 85 0 min 0,000 mm 0,0 UV-I 0 W/m 10,7 C 12,6 C 4,0 km/h (1 Bft) 0,00 %
09.10.2015 22:28 12,6 C 88 % 1018,5 hPa 0,0 l/m 2,2 km/h (1 Bft) O 92 0 min 0,000 mm 0,0 UV-I 0 W/m 10,7 C 12,6 C 4,0 km/h (1 Bft) 0,00 %
09.10.2015 22:33 12,6 C 87 % 1018,4 hPa 0,0 l/m 2,2 km/h (1 Bft) O 89 0 min 0,000 mm 0,0 UV-I 0 W/m 10,5 C 12,6 C 4,0 km/h (1 Bft) 0,00 %
09.10.2015 22:38 12,5 C 87 % 1018,6 hPa 0,0 l/m 1,8 km/h (1 Bft) O 98 0 min 0,000 mm 0,0 UV-I 0 W/m 10,4 C 12,5 C 4,0 km/h (1 Bft) 0,00 %
09.10.2015 22:43 12,5 C 88 % 1018,6 hPa 0,0 l/m 0,0 km/h (0 Bft) O-NO 58 0 min 0,000 mm 0,0 UV-I 0 W/m 10,6 C 12,5 C 0,0 km/h (0 Bft) 0,00 %
09.10.2015 22:48 12,4 C 88 % 1018,5 hPa 0,0 l/m 2,2 km/h (1 Bft) O-NO 59 0 min 0,000 mm 0,0 UV-I 0 W/m 10,5 C 12,4 C 7,9 km/h (2 Bft) 0,00 %
09.10.2015 22:53 12,4 C 88 % 1018,5 hPa 0,0 l/m 14,0 km/h (3 Bft) O-SO 105 0 min 0,000 mm 0,0 UV-I 0 W/m 10,5 C 8,4 C 15,8 km/h (3 Bft) 0,00 %
09.10.2015 22:58 12,3 C 88 % 1018,5 hPa 0,0 l/m 9,4 km/h (2 Bft) S 172 0 min 0,000 mm 0,0 UV-I 0 W/m 10,4 C 10,5 C 15,8 km/h (3 Bft) 0,00 %
09.10.2015 23:03 12,2 C 88 % 1018,4 hPa 0,0 l/m 4,7 km/h (1 Bft) O 89 0 min 0,000 mm 0,0 UV-I 0 W/m 10,3 C 12,2 C 7,9 km/h (2 Bft) 0,00 %
09.10.2015 23:08 12,1 C 88 % 1018,5 hPa 0,0 l/m 6,5 km/h (2 Bft) O 99 0 min 0,000 mm 0,0 UV-I 0 W/m 10,2 C 12,1 C 11,9 km/h (2 Bft) 0,00 %
09.10.2015 23:13 12,0 C 88 % 1018,5 hPa 0,0 l/m 9,7 km/h (2 Bft) O-NO 72 0 min 0,000 mm 0,0 UV-I 0 W/m 10,1 C 10,0 C 11,9 km/h (2 Bft) 0,00 %
09.10.2015 23:18 12,0 C 89 % 1018,4 hPa 0,0 l/m 1,8 km/h (1 Bft) O-SO 112 0 min 0,000 mm 0,0 UV-I 0 W/m 10,2 C 12,0 C 4,0 km/h (1 Bft) 0,00 %
09.10.2015 23:23 11,9 C 88 % 1018,4 hPa 0,0 l/m 0,4 km/h (0 Bft) O 85 0 min 0,000 mm 0,0 UV-I 0 W/m 10,0 C 11,9 C 4,0 km/h (1 Bft) 0,00 %
09.10.2015 23:28 11,7 C 88 % 1018,3 hPa 0,0 l/m 0,0 km/h (0 Bft) NO 54 0 min 0,000 mm 0,0 UV-I 0 W/m 9,8 C 11,7 C 0,0 km/h (0 Bft) 0,00 %
09.10.2015 23:33 11,6 C 88 % 1018,4 hPa 0,0 l/m 5,4 km/h (1 Bft) SO 146 0 min 0,000 mm 0,0 UV-I 0 W/m 9,7 C 11,6 C 7,9 km/h (2 Bft) 0,00 %
09.10.2015 23:38 11,6 C 88 % 1018,5 hPa 0,0 l/m 1,4 km/h (1 Bft) O-NO 73 0 min 0,000 mm 0,0 UV-I 0 W/m 9,7 C 11,6 C 4,0 km/h (1 Bft) 0,00 %
09.10.2015 23:43 11,5 C 88 % 1018,3 hPa 0,0 l/m 0,7 km/h (0 Bft) O 95 0 min 0,000 mm 0,0 UV-I 0 W/m 9,6 C 11,5 C 4,0 km/h (1 Bft) 0,00 %
09.10.2015 23:48 11,5 C 88 % 1018,4 hPa 0,0 l/m 5,8 km/h (2 Bft) O 87 0 min 0,000 mm 0,0 UV-I 0 W/m 9,6 C 11,5 C 7,9 km/h (2 Bft) 0,00 %
09.10.2015 23:53 11,4 C 88 % 1018,3 hPa 0,0 l/m 4,0 km/h (1 Bft) SO 144 0 min 0,000 mm 0,0 UV-I 0 W/m 9,5 C 11,4 C 7,9 km/h (2 Bft) 0,00 %
09.10.2015 23:58 11,3 C 88 % 1018,1 hPa 0,0 l/m 12,2 km/h (2 Bft) O 93 0 min 0,000 mm 0,0 UV-I 0 W/m 9,4 C 7,9 C 19,8 km/h (3 Bft) 0,00 %
_ Min-Zeit 00:41 14:47 14:37 - 00:01 - - - - - - 00:41 23:58 00:01 00:01
Minimum _ 10,3 C 65 % 1017,6 hPa - 0,0 km/h (0 Bft) - - - - - - 9,4 C 7,9 C 0,0 km/h (0 Bft) 0,00 %
_ Max-Zeit 14:47 05:47 00:06 00:06 22:53 - - 10:47 00:01 12:27 14:32 09:47 14:47 23:58 00:01
Maximum _ 16,9 C 97 % 1021,0 hPa 0,3 l/m 14,0 km/h
O-SO (3 Bft)
- - 5 min 0,000 mm 2,0 UV-I 541 W/m 11,5 C 16,9 C 19,8 km/h
O (3 Bft)
0,00 %
Durchschnitt _ 12,6 C 86 % 1019,2 hPa #1,8 l/m 0,4 km/h (0 Bft) O - #3:55 h #0,000 mm 1,1 UV-I 209 W/m 10,3 C 12,6 C 0,8 km/h (0 Bft) 0,00 %